Weather in Korsun-Shevchenkivskyi

Ukraine / Cherkassi District     49°25′02″N   31°15′19″E
temp.,
°C
wind,
m/s
gust,
m/s
humid.,
%
clouds,
%
prec.,
mm/h
press.,
hPa
HPBL,
m
17 october, sun
sun1700:00+8nw3582100 0.0 1019114
03:00+8nnw3787100 0.0 1019181
06:00+6nnw359644 0.0 1020113
09:00+8nnw368645 0.0 1020248
12:00+12nnw34555 0.0 10201043
15:00+13nnw34485 0.0 10191374
18:00+8nnw336443 0.0 102029
21:00+6nw336951 0.0 102044
18 october, mon
mon1800:00+5wnw357425 0.0 102191
03:00+4wnw338099 0.0 102155
06:00+4w367984 0.0 1021128
09:00+5w476899 0.0 1021266
12:00+10w5751100 0.0 1021860
15:00+11wnw6949100 0.0 10191669
18:00+9wnw6862100 0.0 1020988
21:00+8w5975100 0.0 1020819
19 october, tue
tue1900:00+6w5108544 0.0 1020378
03:00+7nw61084100 0.2 1020890
06:00+5nw511892 0.4 1022425
09:00+5nw510780 0.4 1025438
12:00+9nnw68462 0.0 10261313
15:00+10nw68345 0.0 10251664
18:00+7nw34465 0.0 102654
21:00+4nw345365 0.0 102843
20 october, wed
wed2000:00+3wnw335694 0.0 102831
03:00+3w225798 0.0 102832
06:00+3w2256100 0.0 102827
09:00+5sw235558 0.0 1028114
12:00+10ssw4534100 0.0 1027688
15:00+13ssw673597 0.0 1024873
18:00+10s4855100 0.0 1023144
21:00+10ssw5136074 0.0 1022318
21 october, thu
thu2100:00+9ssw61566100 0.0 1021389
03:00+10ssw7157687 0.0 1020400
06:00+8ssw71488100 0.0 1019359
09:00+10ssw71485100 0.0 1018439
12:00+14ssw81263100 0.0 1017624
15:00+16ssw81351100 0.0 1014862
18:00+15ssw71451100 0.0 1013553
21:00+13ssw71662100 0.0 1012503